Content
SEND FEEDBACK

Daily
Averages
Monthly
Summary
Canada

VANCOUVER, BRITISH COLUMBIA


Home > North America > Canada > British Columbia
Elevation: 7 feet     Latitude: 49 11N     Longitude: 123 10W

WEATHER
 
SELECT A DAY
Number of Records: 253,051;   Date Range: 5/15/97 - 10/22/14
 
SHARE

PRINT THIS DATA

[ ← Previous Day ]
WEATHER ALMANAC - JUNE 26, 2013
[ Next Day → ]
[ °C ]   °F
We're sorry. There is no daily almanac available for Vancouver, British Columbia on June 26, 2013.
WEATHER BY HOUR - JUNE 26, 2013
[ °C ]   °F
Local TimeTemperatureDewpointHumidityBarometerVisibilityWind DirectionWind SpeedGust SpeedPrecipitationEventsConditions
12:35 AM59.0 °F55.4 °F88 %29.80 in10.0 miSouth (180°)9.2 mph16.1 mphMostly Cloudy
12:55 AM59.0 °F55.4 °F88 %29.80 in10.0 miSouth (180°)10.4 mphPartly Cloudy
1:15 AM59.0 °F53.6 °F82 %29.81 in10.0 miSouth (180°)9.2 mph16.1 mphClear
1:35 AM59.0 °F53.6 °F82 %29.81 in10.0 miSouth (180°)6.9 mphClear
1:55 AM59.0 °F53.6 °F82 %29.81 in10.0 miSouth (180°)6.9 mphClear
2:15 AM59.0 °F53.6 °F82 %29.81 in10.0 miSouth (190°)10.4 mph19.6 mphClear
2:35 AM59.0 °F53.6 °F82 %29.82 in10.0 miSouth (190°)12.7 mph19.6 mphClear
2:55 AM59.0 °F53.6 °F82 %29.81 in10.0 miSouth (190°)10.4 mph19.6 mphClear
3:15 AM59.0 °F53.6 °F82 %29.82 in10.0 miSouth (190°)12.7 mph18.4 mphClear
3:35 AM59.0 °F53.6 °F82 %29.82 in10.0 miSouth (190°)9.2 mphClear
3:55 AM59.0 °F53.6 °F82 %29.83 in10.0 miSouth (180°)4.6 mphScattered Clouds
4:15 AM59.0 °F53.6 °F82 %29.84 in10.0 miCalmRainLight Rain
4:35 AM59.0 °F53.6 °F82 %29.84 in10.0 miNorthPartly Cloudy
4:55 AM59.0 °F53.6 °F82 %29.84 in10.0 miCalmMostly Cloudy
5:15 AM59.0 °F53.6 °F82 %29.85 in10.0 miENE (60°)4.6 mphRainLight Rain
5:35 AM57.2 °F53.6 °F88 %29.85 in8.0 miCalmRainLight Rain
5:55 AM57.2 °F53.6 °F88 %29.85 in10.0 miCalmRainLight Rain
6:15 AM57.2 °F53.6 °F88 %29.85 in10.0 miCalmOvercast
6:35 AM57.2 °F53.6 °F88 %29.86 in10.0 miCalmOvercast
6:55 AM57.2 °F53.6 °F88 %29.86 in4.0 miEast (90°)6.9 mphRainLight Rain
7:15 AM55.4 °F53.6 °F94 %29.86 in10.0 miCalmRainLight Rain
7:55 AM57.2 °F55.4 °F94 %29.87 in10.0 miCalmOvercast
8:15 AM57.2 °F55.4 °F94 %29.86 in10.0 miCalmOvercast
8:35 AM59.0 °F55.4 °F88 %29.87 in10.0 miCalmMostly Cloudy
8:55 AM62.6 °F55.4 °F77 %29.87 in10.0 miSouth (170°)3.5 mphMostly Cloudy
9:15 AM62.6 °F57.2 °F82 %29.87 in10.0 miSouth (190°)8.1 mphMostly Cloudy
9:35 AM62.6 °F55.4 °F77 %29.88 in10.0 miSouth (190°)9.2 mph16.1 mphMostly Cloudy
9:55 AM62.6 °F55.4 °F77 %29.88 in10.0 miSouth (190°)8.1 mphOvercast
10:15 AM62.6 °F55.4 °F77 %29.88 in10.0 miSSE (160°)4.6 mphOvercast
10:35 AM62.6 °F55.4 °F77 %29.89 in10.0 miSouth (190°)6.9 mphOvercast
10:55 AM62.6 °F57.2 °F82 %29.89 in10.0 miSouth (190°)8.1 mphOvercast
11:15 AM62.6 °F57.2 °F82 %29.90 in10.0 miSouth (190°)10.4 mph16.1 mphOvercast
11:35 AM64.4 °F55.4 °F73 %29.90 in10.0 miSouth (180°)8.1 mph17.3 mphOvercast
11:55 AM64.4 °F55.4 °F73 %29.91 in10.0 miSouth (180°)9.2 mph16.1 mphMostly Cloudy
12:15 PM64.4 °F55.4 °F73 %29.91 in10.0 miSouth (180°)10.4 mphMostly Cloudy
12:35 PM64.4 °F57.2 °F77 %29.92 in10.0 miSouth (190°)11.5 mph17.3 mphMostly Cloudy
12:55 PM64.4 °F57.2 °F77 %29.93 in10.0 miSouth (190°)10.4 mphScattered Clouds
1:15 PM64.4 °F57.2 °F77 %29.94 in10.0 miSouth (190°)9.2 mph16.1 mphScattered Clouds
1:35 PM66.2 °F57.2 °F73 %29.94 in10.0 miSouth (180°)9.2 mph16.1 mphScattered Clouds
1:55 PM66.2 °F57.2 °F73 %29.95 in10.0 miSouth (180°)9.2 mphClear
2:15 PM66.2 °F57.2 °F73 %29.95 in10.0 miSouth (190°)9.2 mphClear
2:35 PM66.2 °F57.2 °F73 %29.95 in10.0 miSouth (190°)9.2 mph16.1 mphClear
2:55 PM66.2 °F57.2 °F73 %29.95 in10.0 miSouth (180°)8.1 mphPartly Cloudy
3:15 PM68.0 °F57.2 °F68 %29.96 in10.0 miSouth (190°)10.4 mphPartly Cloudy
3:35 PM68.0 °F57.2 °F68 %29.96 in10.0 miSouth (190°)8.1 mphClear
3:55 PM68.0 °F57.2 °F68 %29.97 in10.0 miSouth (170°)4.6 mphClear
4:15 PM68.0 °F57.2 °F68 %29.97 in10.0 miSouth (190°)5.8 mphClear
4:35 PM64.4 °F57.2 °F77 %29.98 in10.0 miNNW (330°)3.5 mphPartly Cloudy
4:55 PM62.6 °F55.4 °F77 %29.98 in10.0 miNW (320°)6.9 mphClear
5:15 PM62.6 °F55.4 °F77 %29.99 in10.0 miCalmMostly Cloudy
5:35 PM64.4 °F55.4 °F73 %29.98 in10.0 miNNW (340°)6.9 mphMostly Cloudy
5:55 PM64.4 °F57.2 °F77 %29.99 in10.0 miNW (310°)4.6 mphMostly Cloudy
6:15 PM64.4 °F57.2 °F77 %29.99 in10.0 miCalmScattered Clouds
6:35 PM64.4 °F55.4 °F73 %29.99 in10.0 miCalmScattered Clouds
6:55 PM64.4 °F55.4 °F73 %30.00 in10.0 miCalmScattered Clouds
7:15 PM64.4 °F55.4 °F73 %30.01 in10.0 miCalmPartly Cloudy
7:35 PM62.6 °F55.4 °F77 %30.01 in10.0 miCalmScattered Clouds
7:55 PM62.6 °F55.4 °F77 %30.01 in10.0 miCalmPartly Cloudy
8:15 PM62.6 °F55.4 °F77 %30.02 in10.0 miCalmClear
8:35 PM60.8 °F55.4 °F82 %30.02 in10.0 miCalmPartly Cloudy
8:55 PM62.6 °F57.2 °F82 %30.02 in10.0 miCalmPartly Cloudy
9:15 PM62.6 °F55.4 °F77 %30.02 in10.0 miCalmPartly Cloudy
9:35 PM60.8 °F55.4 °F82 %30.03 in10.0 miCalmClear
9:55 PM60.8 °F55.4 °F82 %30.04 in10.0 miCalmClear
10:15 PM59.0 °F55.4 °F88 %30.04 in10.0 miCalmClear
10:35 PM59.0 °F55.4 °F88 %30.05 in10.0 miSE (140°)4.6 mphClear
11:15 PM59.0 °F55.4 °F88 %30.05 in10.0 miNorthClear
11:35 PM59.0 °F55.4 °F88 %30.05 in10.0 miCalmClear
11:55 PM59.0 °F55.4 °F88 %30.06 in10.0 miCalmPartly Cloudy
Hourly data recorded from CZBB, located miles away from Vancouver, British Columbia







STORIES FROM OUR PARTNERS